Regional Weather Roundup
Issued by NWS Sioux Falls, SD

Home | Current Version | Previous Version | Graphics & Text | Print | Product List | Glossary Off
Versions: 1 2 3 4 5 6 7 8 9 10 11 12 13 14 15 16 17 18 19 20 21 22 23 24 25 26 27 28 29 30 31 32 33 34 35 36 37 38 39 40 41 42 43 44 45 46 47 48 49 50

000
ASUS43 KFSD 271102
RWRFSD

WEATHER ROUNDUP FOR SE SOUTH DAKOTA/SW MINNESOTA/NW IOWA
NATIONAL WEATHER SERVICE SIOUX FALLS SD
600 AM CDT WED MAY 27 2015

NOTE: "FAIR" INDICATES FEW OR NO CLOUDS BELOW 12,000 FEET WITH NO
SIGNIFICANT WEATHER AND OR OBSTRUCTIONS TO VISIBILITY.


SDZ038>040-050-052>070-271200-
SOUTHEAST SOUTH DAKOTA

CITY           SKY/WX    TMP DP  RH WIND       PRES   REMARKS
BROOKINGS      CLEAR     54  48  82 W5        29.96R
CHAMBERLAIN    CLEAR     52  48  87 W6        29.99R
HURON          CLEAR     50  48  93 CALM      29.95R
MADISON        FAIR      55  52  88 W8        29.97R
MITCHELL       CLEAR     56  50  80 SW8       29.97R
SIOUX FALLS    PTCLDY    52  48  86 CALM      29.96R
WINNER         FAIR      58  45  62 SW8       30.00R
YANKTON        CLEAR     55  48  76 CALM      29.98R
$$

MNZ071-072-080-081-089-090-097-098-271200-
SOUTHWEST MINNESOTA

CITY           SKY/WX    TMP DP  RH WIND       PRES   REMARKS
FAIRMONT       MOCLDY    55  52  88 W9        29.92R
JACKSON        PTCLDY    54  52  94 SW6       29.95R FOG
LUVERNE        CLEAR     54  48  82 CALM      29.97R
MARSHALL       CLEAR     54  46  76 W9        29.90R
MONTEVIDEO     CLEAR     55  52  88 W7        29.89R
REDWOOD FALLS  PTCLDY    54  51  90 SW6       29.90R
TRACY          CLEAR     58  51  77 W8        29.92R
WINDOM         PTCLDY    54  52  94 SW5       29.93R
WORTHINGTON    CLEAR     55  46  71 W8        29.95R
$$

IAZ001>003-012>014-020>022-031-032-NEZ013-014-SDZ071-271200-
NORTHWEST IOWA

CITY           SKY/WX    TMP DP  RH WIND       PRES   REMARKS
DENISON        CLEAR     52  52 100 CALM      29.98R FOG
ESTHERVILLE    PTCLDY    52  51  97 SW7       29.94R FOG
SIOUX CITY     CLEAR     52  49  89 NW3       29.99R
SPENCER        CLEAR     52  50  93 SW5       29.96R FOG
$$

ABBREVIATIONS USED IN REMARKS
   TC - TEMPERATURE IN CELSIUS
  WCI - WIND CHILL INDEX
   HX - HEAT INDEX
  VSB - VISIBILITY



USA.gov is the U.S. government's official web portal to all federal, state and local government web resources and services.